リニア彗星

221P/LINEAR (2021)

English version
Home page
Updated on December 18, 2022

---------------------------------------------------------------------

・ プロフィール

・ 軌道要素

Epoch 2022 Aug. 9.0 TT = JDT 2459800.5
T 2021 Dec. 18.14981 TT                                 Rudenko
q   1.7530544            (2000.0)            P               Q
n   0.15323085     Peri.   40.16913     -0.01254111     +0.98844309
a   3.4586391      Node   229.67109     -0.96072975     -0.05379553
e   0.4931375      Incl.   11.42992     -0.27720221     +0.14172611
P   6.43
From 625 observations 2002 Apr. 14-2022 Aug. 31, mean residual 0".7.

・ 光度変化

        m1 = 14.5 + 5 logΔ + 10.0 log r

---------------------------------------------------------------------

軌道要素はM.P.E.C. 2022-R68に掲載されたものです。
光度グラフはComet for Windowsで作成したものです。

---------------------------------------------------------------------

Copyright(C) Seiichi Yoshida (comet@aerith.net). All rights reserved.